User: anonymous
Location: Unspecified
(0.0000°N, 0.0000°E)
Time: 11:13:11
(UTC+00:00)
Language:

Courier 1B Rocket - Orbit

View from above orbital plane
View from above orbital plane
View from above satellite
View from above satellite

Ground track
Ground track

The orbit data is extracted from the following two-line orbital elements,

1 00059U 60013B   14109.49064822  .00000161  00000-0  98265-4 0  8973
2 00059 028.2481 260.2975 0189193 114.1732 247.8713 13.52888384642051
Epoch (UTC): 19 April 2014 11:46:32
Eccentricity: 0.0189193
inclination: 28.2481°
perigee height: 921 km
apogee height: 1202 km
right ascension of ascending node: 260.2975°
argument of perigee: 114.1732°
revolutions per day: 13.52888384
mean anomaly at epoch: 247.8713°
orbit number at epoch: 64205

The dashed part of the orbit path shows where the satellite is in the earth's shadow,  

DLR